sat.trackr.live / text

‹ back to catalog

STARLINK-5227

NORAD 54181 · 2022-141AA

PAYLOAD ACTIVE UNKNOWN

§ Identity

Operator
Country
US
Launch date
2022-10-28
Launch site
AFWTR
Launch vehicle
Mass (kg)
RCS (m²)

Purposes: comms

External: N2YO · Heavens-Above · Gunter

§ Orbital elements

Epoch: 2026-05-25T02:00:12.746304Z

Period
95.44 min
Inclination
53.2124°
Eccentricity
0.0001384
Mean motion
15.08837193 rev/d
Perigee alt
538.8 km
Apogee alt
540.7 km
Semi-major
6,917.9 km
B*
3.4051e-5
RAAN
20.9488°
Arg perigee
75.4430°
Mean anomaly
284.6715°
Rev number
19,739

§ Raw data

STARLINK-52271 54181U 22141AA  26145.08348086  .00000254  00000+0  34051-4 0  99912 54181  53.2124  20.9488 0001384  75.4430 284.6715 15.08837193197395

JSON: /api/v1/satellites/54181 · /tle

For live sub-satellite position, see the globe view (requires WebGL).

§ Visibility from observer

Set your observer location to see the next 7 days of passes ≥ 10°. The values pass through the URL so the page stays shareable.

No JS? Fill the form by hand. The geolocation button needs JavaScript.